Saint George, UT

9:21 PM MST on January 23, 2017 (GMT -0700)
Saint George Municipal

Weather History for KSGU - January, 2017

Change the Weather History Date:

Thursday, January 12, 2017

  Actual Average Record
Temperature  
Mean Temperature 48 °F -  
Max Temperature 51 °F 53 °F 68 °F (1986)
Min Temperature 44 °F 30 °F 6 °F (1963)
Degree Days  
Heating Degree Days 18    
Moisture  
Dew Point 37 °F    
Average Humidity 67    
Maximum Humidity 81    
Minimum Humidity 54    
Precipitation  
Precipitation 0.01 in - - ()
Sea Level Pressure  
Sea Level Pressure 29.95 in    
Wind  
Wind Speed 10 mph (East)    
Max Wind Speed 21 mph    
Max Gust Speed 31 mph    
Visibility 10 miles    
Events      
Averages and records for this station are not official NWS values.
T = Trace of Precipitation, MM = Missing Value Source: NWS Daily Summary

Daily Weather History Graph

Daily Weather History Graph

Search for Another Location

Airport or City:

Trip Planner

Search our weather history database for the weather conditions in past years. The results will help you decide how hot, cold, wet, or windy it might be!

Date:

Astronomy

Jan. 12, 2017 Rise Set
Actual Time 7:47 AM MST 5:38 PM MST
Civil Twilight 7:18 AM MST 6:06 PM MST
Nautical Twilight 6:46 AM MST 6:38 PM MST
Astronomical Twilight 6:15 AM MST 7:10 PM MST
Moon 6:18 PM MST (1/12) 7:43 AM MST (1/12)
Length of Visible Light 10h 48m
Length of Day
9h 51m
Full, 100% of the Moon is Illuminated
Jan 12
Full
Jan 19
Last Quarter
Jan 27
New
Feb 3
First Quarter
Feb 10
Full

Hourly Weather History & Observations

Time (MST) Temp. Windchill Dew Point Humidity Pressure Visibility Wind Dir Wind Speed Gust Speed Precip Events Conditions
12:15 AM 51.8 °F - 35.6 °F 54% 29.92 in 10.0 mi South 8.1 mph - N/A   Overcast
12:35 AM 50.0 °F - 33.8 °F 54% 29.92 in 10.0 mi SE 9.2 mph - N/A   Overcast
12:55 AM 50.0 °F - 33.8 °F 54% 29.91 in 10.0 mi South 8.1 mph - N/A   Mostly Cloudy
1:15 AM 51.8 °F - 35.6 °F 54% 29.90 in 10.0 mi South 11.5 mph - N/A   Partly Cloudy
1:35 AM 50.0 °F - 35.6 °F 58% 29.90 in 10.0 mi South 11.5 mph - N/A   Partly Cloudy
1:55 AM 50.0 °F - 35.6 °F 58% 29.91 in 10.0 mi SSE 9.2 mph - N/A   Partly Cloudy
2:15 AM 48.2 °F - 35.6 °F 62% 29.91 in 10.0 mi ESE 11.5 mph - N/A   Clear
2:35 AM 48.2 °F - 35.6 °F 62% 29.91 in 10.0 mi SE 12.7 mph - N/A   Partly Cloudy
2:55 AM 48.2 °F - 35.6 °F 62% 29.91 in 10.0 mi SE 12.7 mph - N/A   Partly Cloudy
3:15 AM 48.2 °F - 35.6 °F 62% 29.91 in 10.0 mi ESE 11.5 mph - N/A   Scattered Clouds
3:35 AM 46.4 °F 42.4 °F 35.6 °F 66% 29.90 in 10.0 mi ESE 8.1 mph - N/A   Mostly Cloudy
3:55 AM 46.4 °F 41.5 °F 35.6 °F 66% 29.90 in 10.0 mi ESE 10.4 mph - N/A   Overcast
4:15 AM 48.2 °F - 35.6 °F 62% 29.90 in 10.0 mi ESE 9.2 mph - N/A   Overcast
4:35 AM 48.2 °F - 35.6 °F 62% 29.90 in 10.0 mi SE 9.2 mph - N/A   Overcast
4:55 AM 46.4 °F 41.9 °F 37.4 °F 71% 29.89 in 10.0 mi SE 9.2 mph - N/A   Overcast
5:15 AM 48.2 °F - 35.6 °F 62% 29.89 in 10.0 mi ESE 8.1 mph - N/A   Overcast
5:35 AM 46.4 °F 42.4 °F 37.4 °F 71% 29.88 in 10.0 mi ESE 8.1 mph - N/A   Mostly Cloudy
5:55 AM 48.2 °F - 37.4 °F 66% 29.88 in 10.0 mi SSE 10.4 mph - N/A   Overcast
6:15 AM 48.2 °F - 35.6 °F 62% 29.88 in 10.0 mi SE 15.0 mph - N/A   Mostly Cloudy
6:35 AM 48.2 °F - 35.6 °F 62% 29.88 in 10.0 mi SE 11.5 mph - N/A   Mostly Cloudy
6:55 AM 48.2 °F - 33.8 °F 58% 29.89 in 10.0 mi SSE 20.7 mph 24.2 mph N/A   Mostly Cloudy
7:15 AM 48.2 °F - 35.6 °F 62% 29.90 in 10.0 mi SSE 15.0 mph - N/A   Overcast
7:35 AM 48.2 °F - 32.0 °F 54% 29.89 in 10.0 mi SSE 17.3 mph 31.1 mph N/A   Overcast
7:55 AM 46.4 °F 40.7 °F 37.4 °F 71% 29.90 in 10.0 mi SE 12.7 mph - N/A   Overcast
8:15 AM 46.4 °F 40.7 °F 35.6 °F 66% 29.91 in 10.0 mi SE 12.7 mph - N/A   Mostly Cloudy
8:35 AM 46.4 °F 40.7 °F 35.6 °F 66% 29.91 in 10.0 mi SE 12.7 mph - N/A   Mostly Cloudy
8:55 AM 46.4 °F 41.9 °F 35.6 °F 66% 29.93 in 10.0 mi ESE 9.2 mph - N/A   Scattered Clouds
9:15 AM 48.2 °F - 35.6 °F 62% 29.93 in 10.0 mi ESE 10.4 mph - N/A   Partly Cloudy
9:35 AM 48.2 °F - 37.4 °F 66% 29.95 in 10.0 mi SE 8.1 mph - N/A   Partly Cloudy
9:55 AM 48.2 °F - 37.4 °F 66% 29.96 in 10.0 mi SE 9.2 mph - N/A   Mostly Cloudy
10:15 AM 48.2 °F - 37.4 °F 66% 29.98 in 10.0 mi SE 9.2 mph - N/A   Scattered Clouds
10:35 AM 51.8 °F - 37.4 °F 58% 29.98 in 10.0 mi SSE 5.8 mph - N/A   Scattered Clouds
10:55 AM 51.8 °F - 37.4 °F 58% 29.99 in 10.0 mi NE 4.6 mph - N/A   Mostly Cloudy
11:15 AM 51.8 °F - 37.4 °F 58% 29.99 in 10.0 mi NE 6.9 mph - N/A   Mostly Cloudy
11:35 AM 51.8 °F - 37.4 °F 58% 29.99 in 10.0 mi NNW 8.1 mph - N/A   Mostly Cloudy
11:55 AM 51.8 °F - 37.4 °F 58% 29.98 in 10.0 mi North 4.6 mph - N/A   Mostly Cloudy
12:15 PM 51.8 °F - 37.4 °F 58% 29.97 in 10.0 mi NNE 4.6 mph - N/A   Overcast
12:35 PM 51.8 °F - 39.2 °F 62% 29.97 in 10.0 mi ESE 8.1 mph - N/A   Scattered Clouds
12:55 PM 51.8 °F - 37.4 °F 58% 29.96 in 10.0 mi South 10.4 mph - N/A   Scattered Clouds
1:15 PM 51.8 °F - 37.4 °F 58% 29.95 in 10.0 mi SSE 9.2 mph - N/A   Overcast
1:35 PM 50.0 °F - 37.4 °F 62% 29.95 in 10.0 mi SSE 11.5 mph - N/A   Overcast
1:55 PM 50.0 °F - 39.2 °F 66% 29.95 in 10.0 mi SE 9.2 mph - N/A   Overcast
2:15 PM 48.2 °F - 39.2 °F 71% 29.94 in 10.0 mi ESE 10.4 mph 19.6 mph N/A   Mostly Cloudy
2:35 PM 50.0 °F - 39.2 °F 66% 29.94 in 10.0 mi East 10.4 mph - N/A   Mostly Cloudy
2:55 PM 51.8 °F - 37.4 °F 58% 29.95 in 10.0 mi East 8.1 mph - N/A   Clear
3:15 PM 51.8 °F - 37.4 °F 58% 29.95 in 10.0 mi East 6.9 mph - N/A   Clear
3:35 PM 51.8 °F - 37.4 °F 58% 29.96 in 10.0 mi ENE 3.5 mph - N/A   Clear
3:55 PM 51.8 °F - 39.2 °F 62% 29.96 in 10.0 mi NNE 11.5 mph - N/A   Partly Cloudy
4:15 PM 48.2 °F - 39.2 °F 71% 29.96 in 10.0 mi NNE 10.4 mph - N/A   Mostly Cloudy
4:35 PM 48.2 °F - 39.2 °F 71% 29.96 in 10.0 mi NE 11.5 mph - N/A   Mostly Cloudy
4:55 PM 48.2 °F - 39.2 °F 71% 29.97 in 10.0 mi NE 10.4 mph - N/A   Mostly Cloudy
5:15 PM 48.2 °F - 39.2 °F 71% 29.97 in 10.0 mi NNE 9.2 mph - N/A   Overcast
5:35 PM 48.2 °F - 37.4 °F 66% 29.97 in 10.0 mi NE 10.4 mph - N/A   Overcast
5:55 PM 46.4 °F 40.4 °F 37.4 °F 71% 29.98 in 10.0 mi NE 13.8 mph 18.4 mph N/A   Overcast
6:15 PM 46.4 °F 41.9 °F 39.2 °F 76% 29.98 in 10.0 mi NNE 9.2 mph - N/A   Overcast
6:35 PM 46.4 °F 44.3 °F 39.2 °F 76% 29.98 in 10.0 mi North 4.6 mph - N/A   Overcast
6:55 PM 46.4 °F 44.3 °F 39.2 °F 76% 29.98 in 8.0 mi North 4.6 mph - N/A   Overcast
7:15 PM 46.4 °F 42.9 °F 39.2 °F 76% 29.99 in 10.0 mi North 6.9 mph - N/A   Overcast
7:35 PM 44.6 °F 40.2 °F 39.2 °F 81% 30.00 in 10.0 mi NNE 8.1 mph - N/A   Overcast
7:55 PM 44.6 °F 41.4 °F 39.2 °F 81% 30.01 in 10.0 mi NNE 5.8 mph - N/A   Overcast
8:15 PM 44.6 °F 40.2 °F 39.2 °F 81% 30.00 in 10.0 mi NE 8.1 mph - N/A   Overcast
8:35 PM 44.6 °F 43.1 °F 39.2 °F 81% 30.01 in 8.0 mi NE 3.5 mph - N/A   Overcast
8:55 PM 44.6 °F 39.7 °F 39.2 °F 81% 30.01 in 10.0 mi NE 9.2 mph - N/A   Overcast
9:15 PM 44.6 °F 37.8 °F 39.2 °F 81% 30.02 in 10.0 mi NE 15.0 mph - N/A   Overcast
9:35 PM 44.6 °F 38.4 °F 39.2 °F 81% 30.03 in 8.0 mi NE 12.7 mph - N/A   Overcast
9:55 PM 44.6 °F 39.2 °F 39.2 °F 81% 30.03 in 10.0 mi NE 10.4 mph - 0.01 in   Overcast
10:15 PM 44.6 °F 39.7 °F 37.4 °F 76% 30.04 in 10.0 mi NE 9.2 mph - N/A   Overcast
10:35 PM 44.6 °F 39.7 °F 39.2 °F 81% 30.03 in 9.0 mi NE 9.2 mph - N/A   Overcast
10:55 PM 44.6 °F 39.7 °F 37.4 °F 76% 30.03 in 10.0 mi NNE 9.2 mph - N/A   Overcast
11:15 PM 44.6 °F 38.8 °F 37.4 °F 76% 30.03 in 10.0 mi NNE 11.5 mph - N/A   Overcast
11:35 PM 44.6 °F 39.2 °F 37.4 °F 76% 30.02 in 10.0 mi NE 10.4 mph - N/A   Overcast
11:55 PM 44.6 °F 40.7 °F 37.4 °F 76% 30.03 in 10.0 mi ENE 6.9 mph - N/A   Overcast